Find Starlink 37394

NORAD ID: 100475 Int'l Des: 2026-196 Owner: SPXS Country: US Constellation: starlink operational

当前视图

正在加载3D地球...

About Starlink 37394

Starlink 37394 (NORAD 100475) is a starlink constellation satellite launched Aug 25, 2026 by SPXS of US. with a mass of 575.00 kg.

即将过境

Passes for default location (London). Set your location on the main map for personalized predictions.

高度历史

Loading altitude history...

两行轨道根数

1 A0475U 26196C 26251.63411541 .00146161 00000-0 76670-3 0 9999
2 A0475 53.1579 300.8355 0001153 61.5296 298.5843 15.79848087 3482
Epoch: Sep 8, 2026 • Age: 4 hours

当前状态

高度 348.2 km
远地点 / 近地点 N/A
速度 7.70 km/s
星下点 -48.69°S, 99.52°W
发射日期 Aug 25, 2026
运行时间 14 days
类型 internet

技术详情

分类 Payload
质量 575.00 kg
干质量 530.00 kg
总质量 575.00 kg
长度 0.30 m
直径 4.10 m
跨度 29.00 m
形状 Box + pan
制造商 SPXS
平台类型 Starlink V2MO
阶段状态 In Orbit
所有者/国家 SPXS/US

Most Searched